{"data":{"norad_id":59550,"epoch":"2026-09-21T11:51:22.243680Z","epoch_age_seconds":82350,"freshness":"FRESH","line1":"1 59550U 24074S   26264.49400745  .00000110  00000+0  13529-4 0  9999","line2":"2 59550  43.0025 317.4178 0001484 276.9821  83.0862 15.27578027135968","mean_motion":15.27578027,"eccentricity":0.0001484,"inclination_deg":43.0025,"raan_deg":317.4178,"arg_perigee_deg":276.9821,"mean_anomaly_deg":83.0862,"bstar":1.3529e-5,"rev_number":13596,"period_min":94.266870467364,"perigee_km":482.03680302441,"apogee_km":484.07320481118,"semimajor_km":6861.1920039178,"source":"CELESTRAK","updated_at":"2026-09-22T09:00:48.974727Z"}}